Flag for Germany Weather past 2 weeks in Ilmenau, Thuringia, Germany

Now
63 °F

Light rain. Partly cloudy.


Feels Like: 63 °F
Forecast: 57 / 68 °F
Wind: 2 mph from West

Location: Erfurt-Bindersleben

Current Time: Jul 29, 2014 at 3:54:35 AM

Latest Report: Jul 29, 2014 at 3:20 AM


Visibility: N/A

Pressure: 29.83 "Hg

Humidity: 94%

Dew point: 61 °F

Location of IlmenauLocation

Historic Weather in Ilmenau — Graph

°F

Ilmenau temperature yesterday

Maximum temperature yesterday: 77 °F (at 2:20 PM)
Minimum temperature yesterday: 55 °F (at 5:50 AM)
Average temperature yesterday: 68 °F

Past Weeks' High & Low Weather Summary

 TemperatureHumidityPressure
High88 °F (Jul 19, 3:20 PM)100% (Jul 15, 4:50 AM)30.21 "Hg (Jul 15, 4:50 AM)
Low55 °F (Jul 15, 4:20 AM)25% (Jul 19, 6:20 PM)29.80 "Hg (Jul 14, 2:20 AM)
Average69 °F70%30.00 "Hg
* Reported Jul 14 2:20 AM — Jul 29 2:50 AM, Ilmenau, Weather by CustomWeather, © 2014

Note: Actual official high and low records may vary slightly from our data, if they occured in-between our weather recording intervals... More about our weather records

Advertising

Ilmenau weather history for previous 24 hours

 ConditionsComfort  
Time TempWeatherWind HumidityBarometerVisibility
2:50 AM
Jul 29
63 °FPartly cloudy.6 mph94%29.83 "HgN/A
2:20 AM63 °FPartly cloudy.5 mph94%29.86 "HgN/A
1:50 AM64 °FThundershowers. Partly cloudy.2 mph83%29.86 "HgN/A
1:20 AM63 °FThunderstorms. Passing clouds.3 mph88%29.86 "HgN/A
12:50 AM64 °FThunderstorms. Passing clouds.5 mph94%29.86 "HgN/A
12:20 AM66 °FStrong thunderstorms. Passing clouds.12 mph83%29.86 "Hg4 mi
11:20 PM
Jul 28
70 °FPassing clouds.6 mph83%29.83 "HgN/A
10:50 PM70 °FPartly cloudy.6 mph83%29.86 "HgN/A
10:20 PM72 °FThundershowers. Partly cloudy.6 mph73%29.86 "HgN/A
9:50 PM72 °FThundershowers. Broken clouds.3 mph73%29.86 "HgN/A
9:20 PM73 °FPartly sunny.5 mph69%29.86 "HgN/A
8:50 PM73 °FPartly sunny.2 mph69%29.86 "HgN/A
8:20 PM73 °FPartly sunny.3 mph69%29.86 "HgN/A
7:50 PM75 °FPartly sunny.6 mph65%29.83 "HgN/A
7:20 PM75 °FScattered clouds.5 mph65%29.83 "HgN/A
6:50 PM75 °FScattered clouds.7 mph65%29.86 "HgN/A
6:20 PM75 °FThundershowers. Broken clouds.7 mph61%29.86 "HgN/A
5:50 PM77 °FThunderstorms. Broken clouds.9 mph57%29.83 "HgN/A
5:20 PM77 °FBroken clouds.10 mph57%29.86 "HgN/A
4:50 PM77 °FPartly sunny.7 mph61%29.86 "HgN/A
4:20 PM75 °FPartly sunny.6 mph65%29.86 "HgN/A
3:50 PM75 °FBroken clouds.5 mph65%29.86 "HgN/A
3:20 PM75 °FScattered clouds.6 mph61%29.89 "HgN/A
2:50 PM75 °FScattered clouds.6 mph65%29.89 "HgN/A
2:20 PM77 °FBroken clouds.8 mph57%29.92 "HgN/A
1:50 PM75 °FScattered clouds.8 mph65%29.92 "HgN/A
1:20 PM75 °FBroken clouds.6 mph65%29.92 "HgN/A
12:50 PM73 °FPartly sunny.6 mph69%29.92 "HgN/A
12:20 PM72 °FPartly sunny.6 mph73%29.95 "HgN/A
11:50 AM72 °FPartly sunny.6 mph73%29.95 "HgN/A
11:20 AM70 °FPartly sunny.5 mph78%29.95 "HgN/A
10:50 AM68 °FPartly sunny.2 mph83%29.95 "HgN/A
10:20 AM66 °FPartly sunny.1 mph88%29.95 "HgN/A
9:50 AM66 °FPartly sunny.1 mph83%29.95 "HgN/A
9:20 AM64 °FSunny.1 mph88%29.95 "Hg10 mi
8:50 AM64 °FSunny.2 mph88%29.95 "Hg10 mi
8:20 AM63 °FSunny.3 mph94%29.95 "Hg10 mi
7:50 AM63 °FSunny.3 mph88%29.95 "Hg10 mi
7:20 AM61 °FSunny.5 mph94%29.95 "Hg10 mi
6:50 AM59 °FSunny.3 mph100%29.95 "Hg10 mi
6:20 AM57 °FLight fog.6 mph100%29.95 "HgN/A
5:50 AM55 °FFog.6 mph100%29.95 "Hg0 mi
5:20 AM57 °FFog.8 mph94%29.95 "Hg0 mi
4:20 AM59 °FClear.3 mph94%29.95 "Hg10 mi
3:50 AM59 °FClear.6 mph94%29.98 "Hg10 mi
3:20 AM59 °FFog.5 mph94%29.98 "HgN/A
Weather by CustomWeather, © 2014

See weather overviewHow to use our weather pages